Location: *
(38.4303°S, 157.0822°W)
Time: 15:02:12
(UTC+00:00)

CZ-2D R/B - Pass Details

Date: 21 May 2024
Orbit: 480 x 494 km, 97.4° (Epoch: 14 June)

Event Time Altitude Azimuth Distance (km) Brightness Sun altitude
Rises 16:15:30 0° 341° (NNW) 2,539 6.7 -14.3°
Reaches altitude 10° 16:17:58 10° 323° (NW) 1,669 5.6 -13.8°
Enters shadow 16:20:18 19° 282° (WNW) 1,204 4.5 -13.4°
